Resolute,

5:22 AM CST on December 07, 2016 (GMT -0600)
Resolute

Weather History for CYRB - September, 2013

Change the Weather History Date:

Sunday, September 8, 2013

  Actual Average Record
Temperature  
Mean Temperature 24 °F -  
Max Temperature 29 °F 28 °F 37 °F (2008)
Min Temperature 19 °F 23 °F 15 °F (1997)
Degree Days  
Heating Degree Days 41    
Moisture  
Dew Point 23 °F    
Average Humidity 91    
Maximum Humidity 100    
Minimum Humidity 83    
Precipitation  
Precipitation 0.00 in - - ()
Sea Level Pressure  
Sea Level Pressure 29.84 in    
Wind  
Wind Speed 14 mph ()    
Max Wind Speed 23 mph    
Max Gust Speed 23 mph    
Visibility 14.0 miles    
Events Snow    
Averages and records for this station are not official NWS values.
T = Trace of Precipitation, MM = Missing Value Source: Averaged Metar Reports

Daily Weather History Graph

Daily Weather History Graph

Search for Another Location

Airport or City:

Trip Planner

Search our weather history database for the weather conditions in past years. The results will help you decide how hot, cold, wet, or windy it might be!

Date:

Astronomy

Sep. 08, 2013 Rise Set
Actual Time 5:40 AM CDT 8:50 PM CDT
Civil Twilight 4:01 AM CDT 10:26 PM CDT
Nautical Twilight Sun does not rise Sun does not rise
Astronomical Twilight Sun does not rise Sun does not rise
Moon 12:45 PM CDT (9/8) 6:28 PM CDT (9/8)
Length of Visible Light 18h 25m
Length of Day
15h 09m
Waxing Crescent, 11% of the Moon is Illuminated
Sep 8
Waxing Crescent
Sep 12
First Quarter
Sep 19
Full
Sep 26
Last Quarter
Oct 4
New

Hourly Weather History & Observations

Time (CDT) Temp. Windchill Dew Point Humidity Pressure Visibility Wind Dir Wind Speed Gust Speed Precip Events Conditions
12:00 AM 26.6 °F 14.3 °F 24.8 °F 93% 29.74 in 10.0 mi NNW 16.1 mph - N/A   Overcast
12:36 AM - - - N/A% - 15.0 mi NNW 15.0 mph - N/A   Unknown
1:00 AM 27 °F - 26 °F 93% 29.74 in 15 mi NNW 16.1 mph - - Snow Light Snow
1:00 AM 26.6 °F 14.3 °F 26.6 °F 100% 29.74 in 15.0 mi NNW 16.1 mph - N/A Snow Light Snow
2:00 AM 26.6 °F 14.3 °F 24.8 °F 93% 29.76 in 15.0 mi North 16.1 mph - N/A Snow Light Snow
3:00 AM 26.6 °F 15.7 °F 24.8 °F 93% 29.77 in 15.0 mi North 12.7 mph - N/A Snow Light Snow
3:37 AM - - - N/A% - 10.0 mi NNW 9.2 mph - N/A   Unknown
4:00 AM 26.6 °F 14.3 °F 24.8 °F 93% 29.78 in 10.0 mi North 16.1 mph - N/A Snow Light Snow
4:30 AM - - - N/A% - 15.0 mi NW 11.5 mph - N/A   Unknown
4:47 AM - - - N/A% - 10.0 mi NW 12.7 mph - N/A   Unknown
5:00 AM 26.6 °F 16.2 °F 24.8 °F 93% 29.79 in 10.0 mi North 11.5 mph - N/A Snow Light Snow
5:30 AM - - - N/A% - 10.0 mi NNW 17.3 mph - N/A   Unknown
6:00 AM 26.6 °F 16.8 °F 26.6 °F 100% 29.80 in 10.0 mi NNW 10.4 mph - N/A Snow Light Snow
6:43 AM - - - N/A% - 15.0 mi NNW 9.2 mph - N/A   Unknown
7:00 AM 28 °F - 26 °F 87% 29.81 in 15 mi NNW 9.2 mph - - Snow Light Snow
7:00 AM 28.4 °F 19.7 °F 26.6 °F 93% 29.81 in 15.0 mi NNW 9.2 mph - N/A Snow Light Snow
8:00 AM 28.4 °F 18.0 °F 26.6 °F 93% 29.81 in 15.0 mi NNW 12.7 mph - N/A Snow Light Snow
8:42 AM - - - N/A% - 15.0 mi NNW 8.1 mph - N/A   Overcast
9:00 AM 26.6 °F 18.2 °F 24.8 °F 93% 29.82 in 15.0 mi NNW 8.1 mph - N/A   Overcast
10:00 AM 28.4 °F 20.4 °F 24.8 °F 86% 29.83 in 15.0 mi NNW 8.1 mph - N/A   Overcast
11:47 AM - - - N/A% - 15.0 mi North 16.1 mph 21.9 mph N/A   Overcast
12:00 PM 26.6 °F 13.1 °F 23.0 °F 86% 29.85 in 15.0 mi NNE 19.6 mph - N/A   Overcast
12:36 PM - - - N/A% - 15.0 mi North 18.4 mph - N/A   Unknown
1:00 PM 27 °F - 24 °F 83% 29.86 in 15 mi North 18.4 mph - - Snow Light Snow
1:00 PM 26.6 °F 13.4 °F 24.8 °F 93% 29.86 in 15.0 mi North 18.4 mph - N/A Snow Light Snow
2:00 PM 26.6 °F 13.4 °F 23.0 °F 86% 29.87 in 15.0 mi North 18.4 mph - N/A Snow Light Snow
3:00 PM 26.6 °F 13.1 °F 23.0 °F 86% 29.88 in 15.0 mi North 19.6 mph - N/A   Scattered Clouds
4:00 PM 24.8 °F 10.3 °F 21.2 °F 86% 29.89 in 15.0 mi North 20.7 mph - N/A   Scattered Clouds
5:00 PM 23.0 °F 9.2 °F 19.4 °F 86% 29.91 in 15.0 mi North 17.3 mph 23.0 mph N/A   Scattered Clouds
6:00 PM 23.0 °F 7.2 °F 21.2 °F 93% 29.90 in 15.0 mi North 23.0 mph - N/A   Partly Cloudy
7:00 PM 24 °F - 21 °F 85% 29.91 in 15 mi North 20.7 mph - -   Partly Cloudy
7:00 PM 24.8 °F 10.3 °F 21.2 °F 86% 29.91 in 15.0 mi North 20.7 mph - N/A   Scattered Clouds
8:00 PM 23.0 °F 8.3 °F 21.2 °F 93% 29.92 in 15.0 mi North 19.6 mph - N/A   Partly Cloudy
9:00 PM 23.0 °F 10.1 °F 21.2 °F 93% 29.92 in 15.0 mi NNW 15.0 mph - N/A   Scattered Clouds
10:00 PM 21.2 °F 6.4 °F 19.4 °F 93% 29.91 in 15.0 mi North 18.4 mph - N/A   Partly Cloudy
11:00 PM 19.4 °F 2.8 °F 17.6 °F 93% 29.92 in 15.0 mi NNE 21.9 mph - N/A   Partly Cloudy